Location: Crescent
(42.8242°N, 73.7329°W)
Time: 20:13:37
(UTC+00:00)

SR - Pass Details

Date: 23 February 2026
Orbit: 573 x 848 km, 66.7° (Epoch: 6 March)

Event Time Altitude Azimuth Distance (km) Brightness Sun altitude
Rises 16:52:22 0° 328° (NNW) 3,107 ? 37.4°
Reaches altitude 10° 16:54:39 10° 328° (NNW) 2,227 ? 37.4°
Maximum altitude 16:59:46 86° 242° (WSW) 776 ? 37.5°
Drops below altitude 10° 17:05:16 10° 152° (SSE) 2,382 ? 37.5°
Sets 17:07:46 0° 152° (SSE) 3,340 ? 37.5°
